Time,TemperatureF,DewpointF,PressureIn,WindDirection,WindDirectionDegrees,WindSpeedMPH,WindSpeedGustMPH,Humidity,HourlyPrecipIn,Conditions,Clouds,dailyrainin,SolarRadiationWatts/m^2,SoftwareType,DateUTC
2013-08-17 00:04:00,59.3,56.4,21.36,East,86,0.0,0.0,90,0.00,,,0.00,0,Wunderground v.1.15,2013-08-17 05:04:00,
2013-08-17 00:14:00,58.7,56.1,21.36,East,86,0.0,0.0,91,0.00,,,0.00,0,Wunderground v.1.15,2013-08-17 05:14:00,
2013-08-17 00:23:00,58.6,56.0,21.36,East,86,0.0,0.0,91,0.00,,,0.00,0,Wunderground v.1.15,2013-08-17 05:23:00,
2013-08-17 00:29:00,58.6,56.0,21.36,East,86,0.0,0.0,91,0.00,,,0.00,0,Wunderground v.1.15,2013-08-17 05:29:00,
2013-08-17 00:39:00,58.6,56.3,21.36,East,86,0.0,0.0,92,0.00,,,0.00,0,Wunderground v.1.15,2013-08-17 05:39:00,
2013-08-17 00:49:00,58.4,56.1,21.36,East,86,0.0,0.0,92,0.00,,,0.00,0,Wunderground v.1.15,2013-08-17 05:49:00,
2013-08-17 00:59:00,57.9,55.6,21.36,East,86,0.0,0.0,92,0.00,,,0.00,0,Wunderground v.1.15,2013-08-17 05:59:00,
2013-08-17 01:09:00,57.6,55.3,21.36,East,86,0.0,0.0,92,0.00,,,0.00,0,Wunderground v.1.15,2013-08-17 06:09:00,
2013-08-17 01:19:00,57.4,55.1,21.36,East,86,0.0,0.0,92,0.00,,,0.00,0,Wunderground v.1.15,2013-08-17 06:19:00,
2013-08-17 01:29:00,57.3,55.0,21.36,East,86,0.0,0.0,92,0.00,,,0.00,0,Wunderground v.1.15,2013-08-17 06:29:00,
2013-08-17 01:39:00,57.2,54.9,23.48,East,86,0.0,0.0,92,0.00,,,0.00,0,Wunderground v.1.15,2013-08-17 06:39:00,
2013-08-17 01:49:00,57.1,54.8,23.48,East,86,0.0,0.0,92,0.00,,,0.00,0,Wunderground v.1.15,2013-08-17 06:49:00,
2013-08-17 01:59:00,57.0,54.7,23.48,East,86,0.0,0.0,92,0.00,,,0.00,0,Wunderground v.1.15,2013-08-17 06:59:00,
2013-08-17 02:04:00,56.9,54.6,23.48,East,86,0.0,0.0,92,0.00,,,0.00,0,Wunderground v.1.15,2013-08-17 07:04:00,
2013-08-17 02:14:00,56.8,54.5,23.48,East,86,0.0,0.0,92,0.00,,,0.00,0,Wunderground v.1.15,2013-08-17 07:14:00,
2013-08-17 02:24:00,56.6,54.3,23.48,East,86,0.0,0.0,92,0.00,,,0.00,0,Wunderground v.1.15,2013-08-17 07:24:00,
2013-08-17 02:33:00,56.4,54.1,23.48,East,86,0.0,0.0,92,0.00,,,0.00,0,Wunderground v.1.15,2013-08-17 07:33:00,
2013-08-17 02:39:00,56.3,54.0,23.48,East,86,0.0,0.0,92,0.00,,,0.00,0,Wunderground v.1.15,2013-08-17 07:39:00,
2013-08-17 02:49:00,56.1,53.8,23.48,East,86,0.0,0.0,92,0.00,,,0.00,0,Wunderground v.1.15,2013-08-17 07:49:00,
2013-08-17 02:59:00,55.9,53.6,23.48,East,86,0.0,0.0,92,0.00,,,0.00,0,Wunderground v.1.15,2013-08-17 07:59:00,
2013-08-17 03:09:00,55.7,53.7,23.48,East,86,0.0,0.0,93,0.00,,,0.00,0,Wunderground v.1.15,2013-08-17 08:09:00,
2013-08-17 03:19:00,55.6,53.6,23.48,East,86,0.0,0.0,93,0.00,,,0.00,0,Wunderground v.1.15,2013-08-17 08:19:00,
2013-08-17 03:29:00,55.5,53.5,23.48,East,86,0.0,0.0,93,0.00,,,0.00,0,Wunderground v.1.15,2013-08-17 08:29:00,
2013-08-17 03:39:00,55.4,53.4,23.48,East,86,0.0,0.0,93,0.00,,,0.00,0,Wunderground v.1.15,2013-08-17 08:39:00,
2013-08-17 03:49:00,55.3,53.3,23.48,East,86,0.0,0.0,93,0.00,,,0.00,0,Wunderground v.1.15,2013-08-17 08:49:00,
2013-08-17 03:58:00,55.3,53.6,23.48,East,86,0.0,0.0,94,0.00,,,0.00,0,Wunderground v.1.15,2013-08-17 08:58:00,
2013-08-17 04:04:00,55.3,53.6,23.48,East,86,0.0,0.0,94,0.00,,,0.00,0,Wunderground v.1.15,2013-08-17 09:04:00,
2013-08-17 04:14:00,55.1,53.1,23.48,East,86,0.0,0.0,93,0.00,,,0.00,0,Wunderground v.1.15,2013-08-17 09:14:00,
2013-08-17 04:24:00,55.0,53.0,23.48,East,86,0.0,0.0,93,0.00,,,0.00,0,Wunderground v.1.15,2013-08-17 09:24:00,
2013-08-17 04:33:00,54.8,53.1,23.48,East,86,0.0,0.0,94,0.00,,,0.00,0,Wunderground v.1.15,2013-08-17 09:33:00,
2013-08-17 04:39:00,54.8,53.1,23.48,East,86,0.0,0.0,94,0.00,,,0.00,0,Wunderground v.1.15,2013-08-17 09:39:00,
2013-08-17 04:49:00,54.6,52.9,23.48,East,86,0.0,0.0,94,0.00,,,0.00,0,Wunderground v.1.15,2013-08-17 09:49:00,
2013-08-17 04:59:00,54.5,52.8,23.48,East,86,0.0,0.0,94,0.00,,,0.00,0,Wunderground v.1.15,2013-08-17 09:59:00,
2013-08-17 05:08:00,54.3,52.3,23.48,East,86,0.0,0.0,93,0.00,,,0.00,0,Wunderground v.1.15,2013-08-17 10:08:00,
2013-08-17 05:14:00,54.2,52.2,23.48,East,86,0.0,0.0,93,0.00,,,0.00,0,Wunderground v.1.15,2013-08-17 10:14:00,
2013-08-17 05:24:00,54.1,52.4,23.48,East,86,0.0,0.0,94,0.00,,,0.00,0,Wunderground v.1.15,2013-08-17 10:24:00,
2013-08-17 05:34:00,54.0,52.3,23.48,East,86,0.0,0.0,94,0.00,,,0.00,0,Wunderground v.1.15,2013-08-17 10:34:00,
2013-08-17 05:44:00,53.9,52.2,23.48,East,86,0.0,0.0,94,0.00,,,0.00,0,Wunderground v.1.15,2013-08-17 10:44:00,
2013-08-17 05:54:00,53.9,52.2,23.48,East,86,0.0,0.0,94,0.00,,,0.00,0,Wunderground v.1.15,2013-08-17 10:54:00,
2013-08-17 06:03:00,54.1,52.7,23.48,East,86,0.0,0.0,95,0.00,,,0.00,0,Wunderground v.1.15,2013-08-17 11:03:00,
2013-08-17 06:09:00,54.1,52.7,23.48,East,86,0.0,0.0,95,0.00,,,0.00,0,Wunderground v.1.15,2013-08-17 11:09:00,
2013-08-17 06:19:00,54.1,52.7,23.48,East,86,0.0,0.0,95,0.00,,,0.00,0,Wunderground v.1.15,2013-08-17 11:19:00,
2013-08-17 06:24:00,54.2,52.8,23.48,East,86,0.0,0.0,95,0.00,,,0.00,0,Wunderground v.1.15,2013-08-17 11:24:00,
2013-08-17 06:33:00,54.2,52.8,23.48,East,86,0.0,0.0,95,0.00,,,0.00,5,Wunderground v.1.15,2013-08-17 11:33:00,
2013-08-17 06:39:00,54.4,53.0,23.48,East,86,0.0,0.0,95,0.00,,,0.00,9,Wunderground v.1.15,2013-08-17 11:39:00,
2013-08-17 06:44:00,54.6,53.2,23.48,East,86,0.0,0.0,95,0.00,,,0.00,12,Wunderground v.1.15,2013-08-17 11:44:00,
2013-08-17 06:54:00,54.5,53.1,23.48,East,86,0.0,0.0,95,0.00,,,0.00,35,Wunderground v.1.15,2013-08-17 11:54:00,
2013-08-17 07:04:00,54.6,53.2,23.48,East,86,0.0,0.0,95,0.00,,,0.00,65,Wunderground v.1.15,2013-08-17 12:04:00,
2013-08-17 07:14:00,54.8,53.7,23.48,East,86,0.0,0.0,96,0.00,,,0.00,93,Wunderground v.1.15,2013-08-17 12:14:00,
2013-08-17 07:23:00,55.4,54.3,23.48,East,86,0.0,0.0,96,0.00,,,0.00,118,Wunderground v.1.15,2013-08-17 12:23:00,
2013-08-17 07:29:00,55.6,54.5,23.48,East,86,0.0,0.0,96,0.00,,,0.00,132,Wunderground v.1.15,2013-08-17 12:29:00,
2013-08-17 07:39:00,56.2,55.1,23.48,East,86,0.0,0.0,96,0.00,,,0.00,162,Wunderground v.1.15,2013-08-17 12:39:00,
2013-08-17 07:49:00,57.1,56.0,23.48,East,86,0.0,0.0,96,0.00,,,0.00,188,Wunderground v.1.15,2013-08-17 12:49:00,
2013-08-17 07:59:00,58.4,57.3,23.48,East,86,0.0,0.0,96,0.00,,,0.00,216,Wunderground v.1.15,2013-08-17 12:59:00,
2013-08-17 08:08:00,60.0,58.9,23.48,East,86,0.0,0.0,96,0.00,,,0.00,251,Wunderground v.1.15,2013-08-17 13:08:00,
2013-08-17 08:14:00,-999.9,-99.9,23.48,East,86,0.0,1.0,94,0.00,,,0.00,269,Wunderground v.1.15,2013-08-17 13:14:00,
2013-08-17 08:24:00,62.4,59.1,23.48,East,86,0.0,3.0,89,0.00,,,0.00,309,Wunderground v.1.15,2013-08-17 13:24:00,
2013-08-17 08:33:00,64.1,59.2,23.48,ENE,58,1.0,2.0,84,0.00,,,0.00,345,Wunderground v.1.15,2013-08-17 13:33:00,
2013-08-17 08:39:00,65.0,59.0,23.48,ENE,58,1.0,2.0,81,0.00,,,0.00,362,Wunderground v.1.15,2013-08-17 13:39:00,
2013-08-17 08:48:00,66.1,58.7,23.48,ENE,61,2.0,5.0,77,0.00,,,0.00,392,Wunderground v.1.15,2013-08-17 13:48:00,
2013-08-17 08:54:00,66.8,59.4,23.48,ENE,61,2.0,2.0,77,0.00,,,0.00,410,Wunderground v.1.15,2013-08-17 13:54:00,
2013-08-17 09:04:00,67.7,59.5,23.48,NE,45,2.0,5.0,75,0.00,,,0.00,443,Wunderground v.1.15,2013-08-17 14:04:00,
2013-08-17 09:14:00,68.0,59.4,23.48,NNE,25,2.0,2.0,74,0.00,,,0.00,473,Wunderground v.1.15,2013-08-17 14:14:00,
2013-08-17 09:24:00,68.3,59.3,23.48,ENE,59,2.0,4.0,73,0.00,,,0.00,503,Wunderground v.1.15,2013-08-17 14:24:00,
2013-08-17 09:34:00,68.7,59.3,23.48,East,92,4.0,6.0,72,0.00,,,0.00,534,Wunderground v.1.15,2013-08-17 14:34:00,
2013-08-17 09:44:00,69.2,-99.9,23.48,East,85,3.0,3.0,255,0.00,,,0.00,563,Wunderground v.1.15,2013-08-17 14:44:00,
2013-08-17 09:54:00,70.0,60.6,23.48,ENE,60,3.0,4.0,72,0.00,,,0.00,594,Wunderground v.1.15,2013-08-17 14:54:00,
2013-08-17 10:04:00,70.3,59.6,23.48,ENE,71,5.0,5.0,69,0.00,,,0.00,622,Wunderground v.1.15,2013-08-17 15:04:00,
2013-08-17 10:14:00,70.9,59.8,23.48,SE,129,5.0,5.0,68,0.00,,,0.00,650,Wunderground v.1.15,2013-08-17 15:14:00,
2013-08-17 10:24:00,71.6,59.6,23.48,East,81,4.0,5.0,66,0.00,,,0.00,677,Wunderground v.1.15,2013-08-17 15:24:00,
2013-08-17 10:34:00,72.1,59.7,23.48,ENE,77,4.0,7.0,65,0.00,,,0.00,700,Wunderground v.1.15,2013-08-17 15:34:00,
2013-08-17 10:39:00,72.0,59.6,23.48,NNE,22,5.0,8.0,65,0.00,,,0.00,710,Wunderground v.1.15,2013-08-17 15:39:00,
2013-08-17 10:49:00,72.4,60.0,23.48,ENE,67,5.0,5.0,65,0.00,,,0.00,735,Wunderground v.1.15,2013-08-17 15:49:00,
2013-08-17 10:59:00,72.9,59.6,23.48,ENE,73,4.0,4.0,63,0.00,,,0.00,763,Wunderground v.1.15,2013-08-17 15:59:00,
2013-08-17 11:09:00,73.6,57.9,23.48,ESE,117,4.0,4.0,58,0.00,,,0.00,805,Wunderground v.1.15,2013-08-17 16:09:00,
2013-08-17 11:19:00,73.9,58.2,23.48,East,98,3.0,4.0,58,0.00,,,0.00,821,Wunderground v.1.15,2013-08-17 16:19:00,
2013-08-17 11:29:00,74.2,58.0,23.48,ENE,60,5.0,11.0,57,0.00,,,0.00,888,Wunderground v.1.15,2013-08-17 16:29:00,
2013-08-17 11:38:00,74.8,60.0,23.48,NE,42,5.0,7.0,60,0.00,,,0.00,868,Wunderground v.1.15,2013-08-17 16:38:00,
2013-08-17 11:44:00,74.9,58.6,23.48,NE,46,5.0,11.0,57,0.00,,,0.00,837,Wunderground v.1.15,2013-08-17 16:44:00,
2013-08-17 11:54:00,74.1,58.4,23.48,ENE,61,5.0,8.0,58,0.00,,,0.00,953,Wunderground v.1.15,2013-08-17 16:54:00,
2013-08-17 12:04:00,73.5,57.8,23.48,East,91,6.0,8.0,58,0.00,,,0.00,221,Wunderground v.1.15,2013-08-17 17:04:00,
2013-08-17 12:14:00,74.2,-99.9,23.48,NE,56,7.0,8.0,255,0.00,,,0.00,926,Wunderground v.1.15,2013-08-17 17:14:00,
2013-08-17 12:24:00,74.8,58.1,23.48,ENE,65,6.0,6.0,56,0.00,,,0.00,963,Wunderground v.1.15,2013-08-17 17:24:00,
2013-08-17 12:29:00,75.6,57.8,23.48,SE,137,6.0,6.0,54,0.00,,,0.00,1035,Wunderground v.1.15,2013-08-17 17:29:00,
2013-08-17 12:39:00,74.8,58.5,23.48,ENE,71,7.0,10.0,57,0.00,,,0.00,1023,Wunderground v.1.15,2013-08-17 17:39:00,
2013-08-17 12:49:00,75.1,58.8,23.48,ENE,71,6.0,7.0,57,0.00,,,0.00,991,Wunderground v.1.15,2013-08-17 17:49:00,
2013-08-17 12:58:00,75.2,58.9,23.48,ESE,121,4.0,6.0,57,0.00,,,0.00,1099,Wunderground v.1.15,2013-08-17 17:58:00,
2013-08-17 13:03:00,76.7,59.3,23.48,ESE,123,4.0,5.0,55,0.00,,,0.00,1081,Wunderground v.1.15,2013-08-17 18:03:00,
2013-08-17 13:09:00,76.4,58.0,23.48,ENE,66,5.0,8.0,53,0.00,,,0.00,1002,Wunderground v.1.15,2013-08-17 18:09:00,
2013-08-17 13:19:00,76.1,56.7,23.48,ENE,69,6.0,6.0,51,0.00,,,0.00,1021,Wunderground v.1.15,2013-08-17 18:19:00,
2013-08-17 13:29:00,76.6,57.7,23.48,SE,146,6.0,6.0,52,0.00,,,0.00,1034,Wunderground v.1.15,2013-08-17 18:29:00,
2013-08-17 13:39:00,76.8,56.8,23.48,SSE,153,4.0,5.0,50,0.00,,,0.00,1018,Wunderground v.1.15,2013-08-17 18:39:00,
2013-08-17 13:48:00,76.7,57.7,23.48,SSE,166,4.0,10.0,52,0.00,,,0.00,1065,Wunderground v.1.15,2013-08-17 18:48:00,
2013-08-17 13:54:00,76.7,55.5,23.48,SSE,148,5.0,5.0,48,0.00,,,0.00,1078,Wunderground v.1.15,2013-08-17 18:54:00,
2013-08-17 14:04:00,77.0,58.0,23.48,ESE,111,4.0,4.0,52,0.00,,,0.00,1002,Wunderground v.1.15,2013-08-17 19:04:00,
2013-08-17 14:14:00,76.8,57.8,23.48,SE,138,3.0,3.0,52,0.00,,,0.00,998,Wunderground v.1.15,2013-08-17 19:14:00,
2013-08-17 14:24:00,77.6,57.5,23.48,SE,144,3.0,3.0,50,0.00,,,0.00,1025,Wunderground v.1.15,2013-08-17 19:24:00,
2013-08-17 14:34:00,77.9,58.9,23.48,ENE,76,4.0,4.0,52,0.00,,,0.00,1016,Wunderground v.1.15,2013-08-17 19:34:00,
2013-08-17 14:44:00,77.1,58.1,23.48,East,86,4.0,4.0,52,0.00,,,0.00,940,Wunderground v.1.15,2013-08-17 19:44:00,
2013-08-17 14:54:00,77.3,57.2,23.48,East,85,2.0,2.0,50,0.00,,,0.00,956,Wunderground v.1.15,2013-08-17 19:54:00,
2013-08-17 15:04:00,76.8,56.8,23.48,SE,138,2.0,5.0,50,0.00,,,0.00,914,Wunderground v.1.15,2013-08-17 20:04:00,
2013-08-17 15:14:00,77.9,59.9,23.48,SSW,202,2.0,2.0,54,0.00,,,0.00,886,Wunderground v.1.15,2013-08-17 20:14:00,
2013-08-17 15:19:00,78.2,56.3,23.48,SE,134,2.0,2.0,47,0.00,,,0.00,911,Wunderground v.1.15,2013-08-17 20:19:00,
2013-08-17 15:28:00,77.8,57.1,23.48,East,100,2.0,3.0,49,0.00,,,0.00,928,Wunderground v.1.15,2013-08-17 20:28:00,
2013-08-17 15:38:00,78.1,57.4,23.48,ENE,66,2.0,5.0,49,0.00,,,0.00,251,Wunderground v.1.15,2013-08-17 20:38:00,
2013-08-17 15:48:00,77.4,57.9,23.48,ESE,111,2.0,2.0,51,0.00,,,0.00,842,Wunderground v.1.15,2013-08-17 20:48:00,
2013-08-17 15:57:00,77.4,57.3,23.48,ENE,70,4.0,5.0,50,0.00,,,0.00,214,Wunderground v.1.15,2013-08-17 20:57:00,
2013-08-17 16:02:00,76.6,56.6,23.48,NE,48,5.0,5.0,50,0.00,,,0.00,454,Wunderground v.1.15,2013-08-17 21:02:00,
2013-08-17 16:12:00,76.3,58.4,23.48,ENE,68,4.0,4.0,54,0.00,,,0.00,752,Wunderground v.1.15,2013-08-17 21:12:00,
2013-08-17 16:22:00,76.3,56.8,23.48,East,90,2.0,2.0,51,0.00,,,0.00,142,Wunderground v.1.15,2013-08-17 21:22:00,
2013-08-17 16:31:00,77.2,57.7,23.48,SSE,153,2.0,3.0,51,0.00,,,0.00,670,Wunderground v.1.15,2013-08-17 21:31:00,
2013-08-17 16:39:00,77.4,57.3,23.48,SE,146,2.0,3.0,50,0.00,,,0.00,643,Wunderground v.1.15,2013-08-17 21:39:00,
2013-08-17 16:48:00,78.3,58.7,23.48,East,101,2.0,2.0,51,0.00,,,0.00,629,Wunderground v.1.15,2013-08-17 21:48:00,
2013-08-17 16:58:00,78.3,57.6,23.48,NE,42,2.0,2.0,49,0.00,,,0.00,624,Wunderground v.1.15,2013-08-17 21:58:00,
2013-08-17 17:03:00,78.2,58.6,23.48,SSE,152,2.0,5.0,51,0.00,,,0.00,587,Wunderground v.1.15,2013-08-17 22:03:00,
2013-08-17 17:13:00,76.8,57.3,23.48,ENE,76,2.0,2.0,51,0.00,,,0.00,534,Wunderground v.1.15,2013-08-17 22:13:00,
2013-08-17 17:22:00,77.6,59.1,23.48,NE,50,3.0,4.0,53,0.00,,,0.00,550,Wunderground v.1.15,2013-08-17 22:22:00,
2013-08-17 17:27:00,77.6,58.0,23.48,ENE,74,3.0,4.0,51,0.00,,,0.00,533,Wunderground v.1.15,2013-08-17 22:27:00,
2013-08-17 17:34:00,76.6,58.2,23.48,ENE,71,3.0,3.0,53,0.00,,,0.00,86,Wunderground v.1.15,2013-08-17 22:34:00,
2013-08-17 17:39:00,76.0,57.6,23.48,ENE,72,3.0,3.0,53,0.00,,,0.00,81,Wunderground v.1.15,2013-08-17 22:39:00,
2013-08-17 17:48:00,75.7,58.4,23.48,ENE,65,1.0,2.0,55,0.00,,,0.00,396,Wunderground v.1.15,2013-08-17 22:48:00,
2013-08-17 17:58:00,77.0,58.6,23.48,ENE,78,1.0,1.0,53,0.00,,,0.00,399,Wunderground v.1.15,2013-08-17 22:58:00,
2013-08-17 18:08:00,77.1,58.6,23.48,East,85,2.0,2.0,53,0.00,,,0.00,274,Wunderground v.1.15,2013-08-17 23:08:00,
2013-08-17 18:13:00,77.1,58.6,23.48,ESE,103,3.0,4.0,53,0.00,,,0.00,297,Wunderground v.1.15,2013-08-17 23:13:00,
2013-08-17 18:23:00,76.2,57.8,23.48,ENE,69,3.0,3.0,53,0.00,,,0.00,54,Wunderground v.1.15,2013-08-17 23:23:00,
2013-08-17 18:34:00,75.3,57.5,23.48,ENE,70,0.0,0.0,54,0.00,,,0.00,54,Wunderground v.1.15,2013-08-17 23:34:00,
2013-08-17 18:44:00,75.2,58.9,23.48,ENE,74,1.0,1.0,57,0.00,,,0.00,190,Wunderground v.1.15,2013-08-17 23:44:00,
2013-08-17 18:53:00,75.9,58.1,23.48,East,93,0.0,0.0,54,0.00,,,0.00,165,Wunderground v.1.15,2013-08-17 23:53:00,
2013-08-17 19:03:00,76.0,58.2,23.48,ENE,73,2.0,2.0,54,0.00,,,0.00,153,Wunderground v.1.15,2013-08-18 00:03:00,
2013-08-17 19:13:00,75.9,57.5,23.48,ENE,57,2.0,2.0,53,0.00,,,0.00,116,Wunderground v.1.15,2013-08-18 00:13:00,
2013-08-17 19:18:00,75.7,58.4,23.48,East,82,3.0,3.0,55,0.00,,,0.00,97,Wunderground v.1.15,2013-08-18 00:18:00,
2013-08-17 19:28:00,75.0,58.2,23.48,ESE,103,1.0,2.0,56,0.00,,,0.00,63,Wunderground v.1.15,2013-08-18 00:28:00,
2013-08-17 19:38:00,74.4,58.7,23.48,East,98,0.0,1.0,58,0.00,,,0.00,33,Wunderground v.1.15,2013-08-18 00:38:00,
2013-08-17 19:43:00,74.2,58.5,23.48,East,98,0.0,1.0,58,0.00,,,0.00,19,Wunderground v.1.15,2013-08-18 00:43:00,
2013-08-17 19:53:00,73.8,58.6,23.48,East,91,1.0,1.0,59,0.00,,,0.00,12,Wunderground v.1.15,2013-08-18 00:53:00,
2013-08-17 20:03:00,73.4,58.7,23.48,East,91,1.0,2.0,60,0.00,,,0.00,5,Wunderground v.1.15,2013-08-18 01:03:00,
2013-08-17 20:13:00,72.9,59.1,23.48,East,90,1.0,1.0,62,0.00,,,0.00,0,Wunderground v.1.15,2013-08-18 01:13:00,
2013-08-17 20:23:00,72.0,58.7,23.48,East,90,0.0,0.0,63,0.00,,,0.00,0,Wunderground v.1.15,2013-08-18 01:23:00,
2013-08-17 20:33:00,71.3,59.4,23.48,East,90,0.0,0.0,66,0.00,,,0.00,0,Wunderground v.1.15,2013-08-18 01:33:00,
2013-08-17 20:38:00,71.3,58.9,23.48,East,90,0.0,0.0,65,0.00,,,0.00,0,Wunderground v.1.15,2013-08-18 01:38:00,
2013-08-17 20:48:00,70.9,59.0,23.48,East,90,0.0,0.0,66,0.00,,,0.00,0,Wunderground v.1.15,2013-08-18 01:48:00,
2013-08-17 20:58:00,69.9,58.9,23.48,East,90,0.0,0.0,68,0.00,,,0.00,0,Wunderground v.1.15,2013-08-18 01:58:00,
2013-08-17 21:08:00,69.0,58.8,23.48,East,90,0.0,0.0,70,0.00,,,0.00,0,Wunderground v.1.15,2013-08-18 02:08:00,
2013-08-17 21:18:00,68.9,59.1,23.48,East,90,0.0,0.0,71,0.00,,,0.00,0,Wunderground v.1.15,2013-08-18 02:18:00,
2013-08-17 21:23:00,68.3,59.3,18.27,East,90,0.0,0.0,73,0.00,,,0.00,0,Wunderground v.1.15,2013-08-18 02:23:00,
2013-08-17 21:33:00,67.0,59.2,18.27,East,90,0.0,0.0,76,0.00,,,0.00,0,Wunderground v.1.15,2013-08-18 02:33:00,
2013-08-17 21:43:00,66.6,59.2,18.27,East,90,0.0,0.0,77,0.00,,,0.00,0,Wunderground v.1.15,2013-08-18 02:43:00,
2013-08-17 21:53:00,66.1,59.4,18.27,East,90,0.0,0.0,79,0.00,,,0.00,0,Wunderground v.1.15,2013-08-18 02:53:00,
2013-08-17 22:03:00,66.4,59.3,18.27,East,90,0.0,0.0,78,0.00,,,0.00,0,Wunderground v.1.15,2013-08-18 03:03:00,
2013-08-17 22:13:00,66.0,58.9,18.27,East,90,0.0,0.0,78,0.00,,,0.00,0,Wunderground v.1.15,2013-08-18 03:13:00,
2013-08-17 22:18:00,65.4,58.7,18.27,East,90,0.0,0.0,79,0.00,,,0.00,0,Wunderground v.1.15,2013-08-18 03:18:00,
2013-08-17 22:28:00,66.3,58.5,18.27,East,90,0.0,0.0,76,0.00,,,0.00,0,Wunderground v.1.15,2013-08-18 03:28:00,
2013-08-17 22:38:00,66.1,58.3,18.27,East,90,0.0,0.0,76,0.00,,,0.00,0,Wunderground v.1.15,2013-08-18 03:38:00,
2013-08-17 22:48:00,65.3,58.6,16.51,East,90,0.0,0.0,79,0.00,,,0.00,0,Wunderground v.1.15,2013-08-18 03:48:00,
2013-08-17 22:53:00,65.3,58.6,16.51,East,90,0.0,0.0,79,0.00,,,0.00,0,Wunderground v.1.15,2013-08-18 03:53:00,
2013-08-17 23:03:00,65.1,58.4,16.51,East,90,0.0,0.0,79,0.00,,,0.00,0,Wunderground v.1.15,2013-08-18 04:03:00,
2013-08-17 23:08:00,64.7,58.4,16.51,East,90,0.0,0.0,80,0.00,,,0.00,0,Wunderground v.1.15,2013-08-18 04:08:00,
2013-08-17 23:13:00,64.1,58.5,22.51,East,90,0.0,0.0,82,0.00,,,0.00,0,Wunderground v.1.15,2013-08-18 04:13:00,
2013-08-17 23:23:00,63.1,58.2,22.51,East,90,0.0,0.0,84,0.00,,,0.00,0,Wunderground v.1.15,2013-08-18 04:23:00,
2013-08-17 23:28:00,62.9,58.3,22.51,East,90,0.0,0.0,85,0.00,,,0.00,0,Wunderground v.1.15,2013-08-18 04:28:00,
2013-08-17 23:38:00,62.5,58.6,22.51,East,90,0.0,0.0,87,0.00,,,0.00,0,Wunderground v.1.15,2013-08-18 04:38:00,
2013-08-17 23:48:00,63.0,58.4,22.51,East,90,0.0,0.0,85,0.00,,,0.00,0,Wunderground v.1.15,2013-08-18 04:48:00,
2013-08-17 23:58:00,62.9,58.3,22.51,East,90,0.0,0.0,85,0.00,,,0.00,0,Wunderground v.1.15,2013-08-18 04:58:00,